Content
SEND FEEDBACK

Daily
Averages
Monthly
Summary
United Kingdom

LUTON, ENGLAND


Home > Europe > United Kingdom > England
Elevation: 527 feet     Latitude: 51 52N     Longitude: 000 21W

WEATHER
 
SELECT A DAY
Number of Records: 294,205;   Date Range: 7/1/96 - 10/30/14
 
SHARE

PRINT THIS DATA

[ ← Previous Day ]
WEATHER ALMANAC - OCTOBER 8, 2013
[ Next Day → ]
[ °C ]   °F
We're sorry. There is no daily almanac available for Luton, England on October 8, 2013.
WEATHER BY HOUR - OCTOBER 8, 2013
[ °C ]   °F
Local TimeTemperatureDewpointHumidityBarometerVisibilityWind DirectionWind SpeedGust SpeedPrecipitationEventsConditions
12:50 AM53.6 °F53.6 °F100 %30.24 inSSW (200°)5.8 mphClear
1:20 AM53.6 °F53.6 °F100 %30.24 in2.8 miSSW (200°)3.5 mphMist
1:50 AM53.6 °F53.6 °F100 %30.24 in0.4 miVariable3.5 mphFogFog
2:20 AM55.4 °F55.4 °F100 %30.24 in0.1 miVariable3.5 mphFogFog
2:50 AM55.4 °F55.4 °F100 %30.24 inSW (220°)2.3 mphFogFog
3:20 AM55.4 °F55.4 °F100 %30.24 in0.7 miVariable3.5 mphMostly Cloudy
3:50 AM55.4 °F55.4 °F100 %30.24 in0.1 miSSW (210°)5.8 mphFogFog
4:20 AM55.4 °F55.4 °F100 %30.24 inSSW (210°)8.1 mphFogFog
4:50 AM55.4 °F55.4 °F100 %30.24 in1.9 miSW (220°)8.1 mphMostly Cloudy
5:20 AM55.4 °F55.4 °F100 %30.24 in2.2 miSW (220°)6.9 mphOvercast
5:50 AM55.4 °F55.4 °F100 %30.24 inSSW (210°)6.9 mphMostly Cloudy
6:20 AM55.4 °F55.4 °F100 %30.24 in2.2 miSouth (190°)4.6 mphMostly Cloudy
6:50 AM53.6 °F53.6 °F100 %30.24 inSSW (200°)4.6 mphMostly Cloudy
7:20 AM55.4 °F55.4 °F100 %30.24 inSouth (190°)4.6 mphOvercast
7:50 AM55.4 °F55.4 °F100 %30.24 in3.7 miVariable3.5 mphPartly Cloudy
8:20 AM55.4 °F55.4 °F100 %30.24 in4.3 miVariable3.5 mphMostly Cloudy
8:50 AM55.4 °F55.4 °F100 %30.27 in5.0 miSW (230°)6.9 mphMostly Cloudy
9:20 AM57.2 °F57.2 °F100 %30.27 in6.2 miSW (220°)6.9 mphMostly Cloudy
9:50 AM59.0 °F59.0 °F100 %30.27 in6.2 miSW (230°)5.8 mphMostly Cloudy
10:20 AM60.8 °F59.0 °F94 %30.27 in6.2 miSW (230°)9.2 mphPartly Cloudy
10:50 AM62.6 °F59.0 °F88 %30.24 in6.2 miSW (220°)9.2 mphPartly Cloudy
11:20 AM66.2 °F59.0 °F78 %30.24 in6.2 miSW (220°)9.2 mphScattered Clouds
11:50 AM64.4 °F59.0 °F83 %30.27 in6.2 miWest (260°)15.0 mphScattered Clouds
12:20 PM64.4 °F59.0 °F83 %30.24 in6.2 miWSW (240°)15.0 mphPartly Cloudy
12:50 PM64.4 °F59.0 °F83 %30.24 in6.2 miWSW (250°)13.8 mphMostly Cloudy
1:20 PM64.4 °F57.2 °F77 %30.24 in6.2 miWSW (250°)12.7 mphMostly Cloudy
1:50 PM66.2 °F59.0 °F78 %30.24 in6.2 miWSW (250°)11.5 mphScattered Clouds
2:20 PM64.4 °F59.0 °F83 %30.24 in6.2 miWSW (250°)13.8 mphMostly Cloudy
2:50 PM64.4 °F59.0 °F83 %30.24 in6.2 miWSW (240°)13.8 mphMostly Cloudy
3:20 PM64.4 °F59.0 °F83 %30.24 in6.2 miWSW (250°)11.5 mphMostly Cloudy
3:50 PM64.4 °F59.0 °F83 %30.24 in6.2 miWSW (240°)10.4 mphMostly Cloudy
4:20 PM66.2 °F59.0 °F78 %30.24 in6.2 miWSW (250°)12.7 mphScattered Clouds
4:50 PM64.4 °F57.2 °F77 %30.24 in6.2 miWSW (250°)12.7 mphPartly Cloudy
5:20 PM64.4 °F57.2 °F77 %30.21 in6.2 miWSW (240°)10.4 mphPartly Cloudy
5:50 PM62.6 °F57.2 °F82 %30.21 in6.2 miWSW (240°)8.1 mphMostly Cloudy
6:20 PM62.6 °F59.0 °F88 %30.24 in6.2 miWSW (240°)11.5 mphMostly Cloudy
6:50 PM62.6 °F59.0 °F88 %30.24 in6.2 miWSW (240°)9.2 mphMostly Cloudy
7:20 PM60.8 °F59.0 °F94 %30.24 in6.2 miWSW (240°)6.9 mphMostly Cloudy
7:50 PM60.8 °F59.0 °F94 %30.24 in6.2 miWSW (250°)9.2 mphMostly Cloudy
8:20 PM60.8 °F59.0 °F94 %30.24 in6.2 miWSW (240°)6.9 mphMostly Cloudy
8:50 PM59.0 °F57.2 °F94 %30.24 in6.2 miWSW (240°)8.1 mphPartly Cloudy
9:20 PM59.0 °F59.0 °F100 %30.24 in6.2 miWest (260°)10.4 mphPartly Cloudy
9:50 PM59.0 °F59.0 °F100 %30.24 in6.2 miWest (280°)10.4 mphOvercast
10:20 PM59.0 °F55.4 °F88 %30.24 in6.2 miWest (280°)10.4 mphMostly Cloudy
10:50 PM59.0 °F55.4 °F88 %30.24 in6.2 miWest (280°)11.5 mphMostly Cloudy
11:20 PM57.2 °F55.4 °F94 %30.24 in6.2 miWNW (290°)9.2 mphMostly Cloudy
11:50 PM57.2 °F53.6 °F88 %30.24 in6.2 miWest (280°)9.2 mphOvercast
Hourly data recorded from EGGW, located miles away from Luton, England







STORIES FROM OUR PARTNERS